When you browse on this site, cookies collect data to enhance your experience and personalize the content and advertising you see.
Visit our Privacy Policy to learn more. By continuing to use the site, you agree to this use of cookies and data.
  • In Austria
  • List of Countries
  • For 7 days
  • Water Temperature
  • Satellite Maps
  • Weather Map
  • News
  • Weather Widgets
  • user-avatar
    Login

    Hourly Weather Nakhchivan

    Today, 24 March, Sunday

    Time Temperature Precipitation Wind Pressure Humidity
    00:00 +10°C° 0 mm 2 mps 683 mmHg 36%
    01:00 +10°C° 0 mm 2 mps 683 mmHg 38%
    02:00 +9°C° 0 mm 2 mps 683 mmHg 40%
    03:00 +9°C° 0 mm 2 mps 682 mmHg 39%
    04:00 +8°C° 0 mm 2 mps 682 mmHg 42%
    05:00 +8°C° 0 mm 2 mps 681 mmHg 45%
    06:00 +8°C° 0 mm 1 mps 681 mmHg 48%
    07:00 +9°C° 0 mm 2 mps 681 mmHg 46%
    08:00 +10°C° 0 mm 3 mps 681 mmHg 45%
    09:00 +12°C° 0 mm 3 mps 681 mmHg 43%
    10:00 +13°C° 0 mm 4 mps 680 mmHg 39%
    11:00 +14°C° 0 mm 5 mps 680 mmHg 35%
    12:00 +16°C° 0 mm 6 mps 680 mmHg 32%
    13:00 +16°C° 0 mm 6 mps 680 mmHg 31%
    14:00 +16°C° 0 mm 7 mps 680 mmHg 31%
    15:00 +16°C° 0 mm 7 mps 679 mmHg 32%
    16:00 +15°C° 0.1 mm 7 mps 680 mmHg 36%
    17:00 +14°C° 0.1 mm 6 mps 680 mmHg 40%
    18:00 +14°C° 0.1 mm 6 mps 680 mmHg 44%
    19:00 +13°C° 0.2 mm 5 mps 680 mmHg 48%
    20:00 +12°C° 0.2 mm 4 mps 680 mmHg 52%
    21:00 +11°C° 0.2 mm 3 mps 680 mmHg 57%
    22:00 +10°C° 0.2 mm 4 mps 680 mmHg 58%
    23:00 +8°C° 0.2 mm 4 mps 680 mmHg 59%

    Tomorrow, 25 March, Monday

    Time Temperature Precipitation Wind Pressure Humidity
    00:00 +7°C° 0.2 mm 4 mps 680 mmHg 60%
    01:00 +7°C° 0.5 mm 4 mps 680 mmHg 61%
    02:00 +8°C° 0.5 mm 3 mps 680 mmHg 62%
    03:00 +7°C° 0.5 mm 3 mps 680 mmHg 63%
    04:00 +7°C° 0 mm 3 mps 680 mmHg 62%
    05:00 +7°C° 0 mm 3 mps 680 mmHg 62%
    06:00 +7°C° 0 mm 3 mps 680 mmHg 61%
    07:00 +7°C° 0 mm 3 mps 680 mmHg 58%
    08:00 +8°C° 0 mm 3 mps 680 mmHg 55%
    09:00 +9°C° 0 mm 3 mps 680 mmHg 51%
    10:00 +10°C° 0 mm 3 mps 680 mmHg 48%
    11:00 +11°C° 0 mm 3 mps 680 mmHg 45%
    12:00 +13°C° 0 mm 2 mps 680 mmHg 41%
    13:00 +13°C° 0.2 mm 2 mps 680 mmHg 43%
    14:00 +12°C° 0.2 mm 2 mps 680 mmHg 44%
    15:00 +12°C° 0.2 mm 2 mps 680 mmHg 45%
    16:00 +12°C° 0.1 mm 2 mps 681 mmHg 47%
    17:00 +12°C° 0.1 mm 1 mps 681 mmHg 48%
    18:00 +11°C° 0.1 mm 1 mps 681 mmHg 50%
    19:00 +11°C° 0.2 mm 1 mps 682 mmHg 51%
    20:00 +10°C° 0.2 mm 1 mps 682 mmHg 52%
    21:00 +10°C° 0.2 mm 1 mps 683 mmHg 54%
    22:00 +10°C° 0.1 mm 1 mps 683 mmHg 54%
    23:00 +9°C° 0.1 mm 1 mps 683 mmHg 55%

    Day after tomorrow, 26 March, Tuesday

    Time Temperature Precipitation Wind Pressure Humidity
    00:00 +9°C° 0.1 mm 1 mps 683 mmHg 55%
    01:00 +9°C° 0 mm 1 mps 683 mmHg 56%
    02:00 +8°C° 0 mm 1 mps 683 mmHg 56%
    03:00 +8°C° 0 mm 1 mps 684 mmHg 57%
    04:00 +8°C° 0.1 mm 1 mps 684 mmHg 59%
    05:00 +8°C° 0.1 mm 1 mps 684 mmHg 62%
    06:00 +6°C° 0.1 mm 0 mps 684 mmHg 64%
    07:00 +7°C° 0.2 mm 0 mps 684 mmHg 64%
    08:00 +7°C° 0.2 mm 0 mps 684 mmHg 64%
    09:00 +7°C° 0.2 mm 0 mps 685 mmHg 64%
    10:00 +8°C° 0.1 mm 0 mps 684 mmHg 59%
    11:00 +9°C° 0.1 mm 0 mps 684 mmHg 55%
    12:00 +10°C° 0.1 mm 0 mps 684 mmHg 51%
    13:00 +12°C° 0 mm 1 mps 684 mmHg 49%
    14:00 +13°C° 0 mm 1 mps 683 mmHg 46%
    15:00 +13°C° 0 mm 1 mps 683 mmHg 43%
    16:00 +13°C° 0 mm 1 mps 683 mmHg 44%
    17:00 +13°C° 0 mm 1 mps 684 mmHg 45%
    18:00 +13°C° 0 mm 1 mps 684 mmHg 45%
    19:00 +13°C° 0 mm 1 mps 684 mmHg 48%
    20:00 +12°C° 0 mm 1 mps 684 mmHg 52%
    21:00 +10°C° 0 mm 2 mps 685 mmHg 55%
    22:00 +11°C° 0 mm 1 mps 685 mmHg 57%
    23:00 +10°C° 0 mm 1 mps 684 mmHg 60%

    27 March, Wednesday

    Time Temperature Precipitation Wind Pressure Humidity
    00:00 +10°C° 0 mm 1 mps 684 mmHg 62%
    01:00 +10°C° 0 mm 1 mps 684 mmHg 63%
    02:00 +9°C° 0 mm 1 mps 684 mmHg 65%
    03:00 +9°C° 0 mm 1 mps 684 mmHg 66%
    04:00 +8°C° 0 mm 1 mps 684 mmHg 66%
    05:00 +8°C° 0 mm 1 mps 684 mmHg 67%
    06:00 +8°C° 0 mm 1 mps 684 mmHg 67%
    07:00 +9°C° 0 mm 1 mps 684 mmHg 63%
    08:00 +10°C° 0 mm 1 mps 685 mmHg 59%
    09:00 +10°C° 0 mm 1 mps 685 mmHg 55%
    10:00 +11°C° 0 mm 1 mps 685 mmHg 51%
    11:00 +13°C° 0 mm 1 mps 684 mmHg 47%
    12:00 +14°C° 0 mm 1 mps 684 mmHg 43%
    13:00 +14°C° 0 mm 1 mps 684 mmHg 41%
    14:00 +15°C° 0 mm 1 mps 684 mmHg 38%
    15:00 +16°C° 0 mm 1 mps 684 mmHg 36%
    16:00 +16°C° 0 mm 2 mps 685 mmHg 36%
    17:00 +15°C° 0 mm 2 mps 685 mmHg 37%
    18:00 +15°C° 0 mm 2 mps 685 mmHg 37%
    19:00 +14°C° 0 mm 2 mps 686 mmHg 40%
    20:00 +14°C° 0 mm 1 mps 686 mmHg 43%
    21:00 +13°C° 0 mm 1 mps 687 mmHg 45%
    22:00 +12°C° 0 mm 1 mps 687 mmHg 47%
    23:00 +12°C° 0 mm 1 mps 687 mmHg 49%

    28 March, Thursday

    Time Temperature Precipitation Wind Pressure Humidity
    00:00 +11°C° 0 mm 1 mps 687 mmHg 51%
    01:00 +11°C° 0 mm 1 mps 687 mmHg 52%
    02:00 +10°C° 0 mm 1 mps 687 mmHg 53%
    03:00 +10°C° 0 mm 1 mps 686 mmHg 55%
    04:00 +9°C° 0 mm 1 mps 687 mmHg 56%
    05:00 +9°C° 0 mm 1 mps 687 mmHg 57%
    06:00 +9°C° 0 mm 1 mps 687 mmHg 58%
    07:00 +10°C° 0 mm 1 mps 687 mmHg 54%
    08:00 +10°C° 0 mm 1 mps 687 mmHg 51%
    09:00 +10°C° 0 mm 0 mps 687 mmHg 47%
    10:00 +12°C° 0 mm 1 mps 687 mmHg 45%
    11:00 +13°C° 0 mm 1 mps 687 mmHg 42%
    12:00 +14°C° 0 mm 1 mps 687 mmHg 40%
    13:00 +14°C° 0 mm 1 mps 687 mmHg 39%
    14:00 +15°C° 0 mm 1 mps 686 mmHg 38%
    15:00 +15°C° 0 mm 1 mps 686 mmHg 37%
    16:00 +15°C° 0.2 mm 1 mps 686 mmHg 40%
    17:00 +14°C° 0.2 mm 2 mps 686 mmHg 43%
    18:00 +14°C° 0.2 mm 2 mps 686 mmHg 45%
    19:00 +13°C° 0 mm 2 mps 686 mmHg 47%
    20:00 +13°C° 0 mm 2 mps 687 mmHg 49%
    21:00 +12°C° 0 mm 1 mps 687 mmHg 51%
    22:00 +12°C° 0.1 mm 1 mps 687 mmHg 53%
    23:00 +12°C° 0.1 mm 1 mps 686 mmHg 55%

    29 March, Friday

    Time Temperature Precipitation Wind Pressure Humidity
    00:00 +10°C° 0.1 mm 0 mps 686 mmHg 58%
    01:00 +10°C° 0.5 mm 0 mps 686 mmHg 61%
    02:00 +9°C° 0.5 mm 0 mps 686 mmHg 64%
    03:00 +9°C° 0.5 mm 0 mps 686 mmHg 67%
    04:00 +10°C° 0.3 mm 1 mps 686 mmHg 68%
    05:00 +9°C° 0.3 mm 1 mps 686 mmHg 69%
    06:00 +8°C° 0.3 mm 2 mps 687 mmHg 70%
    07:00 +8°C° 0.1 mm 2 mps 687 mmHg 69%
    08:00 +8°C° 0.1 mm 2 mps 687 mmHg 67%
    09:00 +9°C° 0.1 mm 1 mps 687 mmHg 65%
    10:00 +10°C° 0 mm 1 mps 687 mmHg 61%
    11:00 +11°C° 0 mm 1 mps 687 mmHg 57%
    12:00 +12°C° 0 mm 1 mps 687 mmHg 53%
    13:00 +13°C° 0.1 mm 1 mps 686 mmHg 50%
    14:00 +13°C° 0.1 mm 1 mps 686 mmHg 47%
    15:00 +14°C° 0.1 mm 1 mps 686 mmHg 44%
    16:00 +14°C° 0 mm 2 mps 686 mmHg 43%
    17:00 +14°C° 0 mm 2 mps 686 mmHg 43%
    18:00 +14°C° 0 mm 2 mps 686 mmHg 42%
    19:00 +13°C° 0.1 mm 2 mps 686 mmHg 43%
    20:00 +13°C° 0.1 mm 1 mps 687 mmHg 44%
    21:00 +12°C° 0.1 mm 1 mps 687 mmHg 46%
    22:00 +12°C° 0 mm 1 mps 687 mmHg 47%
    23:00 +10°C° 0 mm 2 mps 687 mmHg 49%
    Show more